USA 57

导读

USA 57是美国于1990年4月11日08:00发射的军用卫星。作为美军早期USA系列编号卫星,它承载了美国当时航天领域的军事应用探索任务,该系列卫星多服务于战略侦察、空间态势感知等国防航天需求。此次发射依托成熟运载技术实施,是美国冷战末期航天军事部署的组成部分,为后续美国天基军事体系建设积累了关键实践经验。

Basic Information
目录编号:
20561
目录名称:
USA 57
国际标识:
1990-031B
轨道中心:
EARTH
卫星名称:
USA 57
卫星全名:
--
卫星状态:
在轨 (已飞行13243 天)
发射日期:
1990-04-11 UTC
国别 :
美国 (US)
星等 :
--
Orbit Information
数据来源 国际轨道数据 AOE轨道数据
星历时间 2026-07-14T12:03:45+0800
5小时前
查看轨道信息
2026-07-10T01:00:00+0800
4天前
查看轨道信息
半长轴 7028.774km 7028.74km
偏心率 0.0064698 0.0065189
轨道倾角 89.851° 89.851°
近地点辐角 323.718° 339.768°
升交点赤经 264.309° 264.389°
平近点角 35.966° 135.904°
近地点 605.162km 604.783km
远地点 696.112km 696.423km
周期 97.742分钟 97.741分钟
每日圈数 14.732736 14.732844
Detailed Information
使用方式:
暂无
2D Orbit Map
3D Orbit Map
Orbit Altitude Analysis Chart
Orbit Inclination Analysis Chart
Orbit Comprehensive Analysis Chart
View Comprehensive Chart